This is the latest recevied weather packets stored in our database for station/object KE0TNI-13. If no packets are shown the sender has not sent any weather packets the latest 10 day(s).
| Time | Temp. | Humidity | Pressure | Rain* | Wind** | Luminosity | Snow |
|---|---|---|---|---|---|---|---|
| 1777692428 | -1.67° C | 78% | 1025 hPa | 0 mm | - | 0 W/m² | - |
| 1777692124 | -1.67° C | 77% | 1025 hPa | 0 mm | - | 0 W/m² | - |
| 1777691822 | -1.11° C | 78% | 1024.8 hPa | 0 mm | - | 0 W/m² | - |
| 1777691520 | -1.11° C | 75% | 1024.6 hPa | 0 mm | - | 0 W/m² | - |
| 1777691219 | -1.11° C | 77% | 1024.8 hPa | 0 mm | - | 0 W/m² | - |
| 1777690916 | -1.11° C | 77% | 1024.6 hPa | 0 mm | - | 0 W/m² | - |
| 1777690625 | -1.11° C | 75% | 1024.8 hPa | 0 mm | - | 0 W/m² | - |
| 1777690311 | -1.11° C | 75% | 1024.9 hPa | 0 mm | - | 0 W/m² | - |
| 1777690008 | -0.56° C | 72% | 1024.4 hPa | 0 mm | - | 0 W/m² | - |
| 1777689706 | -0.56° C | 73% | 1024.5 hPa | 0 mm | - | 0 W/m² | - |
| 1777689404 | -0.56° C | 74% | 1024.2 hPa | 0 mm | - | 0 W/m² | - |
| 1777689101 | 0° C | 71% | 1024.5 hPa | 0 mm | - | 0 W/m² | - |
| 1777688798 | 0° C | 70% | 1024.4 hPa | 0 mm | - | 0 W/m² | - |
| 1777688495 | 0° C | 69% | 1024.4 hPa | 0 mm | - | 0 W/m² | - |
| 1777688193 | 0.56° C | 69% | 1024.2 hPa | 0 mm | - | 0 W/m² | - |
| 1777687889 | 0.56° C | 70% | 1024.2 hPa | 0 mm | - | 0 W/m² | - |
| 1777687587 | 1.11° C | 70% | 1024.4 hPa | 0 mm | - | 1 W/m² | - |
| 1777687283 | 1.67° C | 70% | 1024.2 hPa | 0 mm | - | 1 W/m² | - |
| 1777686982 | 1.67° C | 69% | 1024.5 hPa | 0 mm | - | 3 W/m² | - |
| 1777686678 | 2.22° C | 64% | 1024 hPa | 0 mm | - | 4 W/m² | - |
| 1777686375 | 2.78° C | 65% | 1024.1 hPa | 0 mm | - | 6 W/m² | - |
| 1777686072 | 2.78° C | 63% | 1024 hPa | 0 mm | - | 9 W/m² | - |
| 1777685768 | 3.33° C | 62% | 1024 hPa | 0 mm | - | 13 W/m² | - |
| 1777685464 | 3.89° C | 62% | 1023.7 hPa | 0 mm | - | 19 W/m² | - |
| 1777685161 | 4.44° C | 57% | 1023.9 hPa | 0 mm | - | 21 W/m² | - |
* Rain latest hour (hover to see other rain measurements)
** Current wind speed in m/s (hover to see current wind gust speed)